Retour au catalogue

COSMOS 2251 DEB

ActifLEO
NORAD 34965·DEBRIS·🇷🇺 Russia

Lancé Jun 16, 1993 depuis Plesetsk Cosmodrome

Loading…

Prochains Passages (prochaines 24 heures)

TLE

FraisSource: Space-Track

Époque: Sep 14, 2026, 04:41 UTC

1 34965U 93036AEU 26257.19575448  .00000498  00000-0  13735-3 0  9996
2 34965  74.0532 332.5268 0025208  26.1481 334.0945 14.49230044911031

Suivez COSMOS 2251 DEB en temps réel avec AllMySat

Download on the App Store